Regional Weather Roundup
Issued by NWS

Home | Current Version | Previous Version | Text Only | Print | Product List | Glossary On
Versions: 1 2 3 4 5 6 7 8 9 10 11 12 13 14 15 16 17 18 19 20 21 22 23 24 25 26 27 28 29 30 31 32 33 34 35 36 37 38 39 40 41 42 43 44 45 46 47 48 49 50
966
ASUS45 KREV 291010
RWRNV
NEVADA REGIONAL WEATHER ROUNDUP
NATIONAL WEATHER SERVICE RENO NV
300 AM PDT FRI JUL 29 2016

NOTE: "FAIR" INDICATES FEW OR NO CLOUDS BELOW 12,000 FEET WITH NO
SIGNIFICANT WEATHER AND/OR OBSTRUCTIONS TO VISIBILITY.

NVZ001-003-004-291100-
WESTERN NEVADA

CITY           SKY/WX    TMP DP  RH WIND       PRES   REMARKS
RENO           CLEAR     76  46  34 S3        30.08F
CARSON CITY    FAIR      68  45  42 N3        30.12F
MINDEN         FAIR      59  48  67 E3        30.12S
SLIDE MTN        N/A     64  37  36 CALM        N/A
PYRAMID LAKE     N/A     81 N/A N/A S5          N/A
FALLON         PTCLDY    76  41  28 SW9       30.01S
LOVELOCK       CLEAR     70  34  26 NE6       30.00R
HAWTHORNE      CLEAR     82  39  21 S6        30.04S
$$

NVZ002-CAZ072-073-291100-
NORTHERN AND CENTRAL SIERRA

CITY           SKY/WX    TMP DP  RH WIND       PRES   REMARKS
S. LAKE TAHOE  CLEAR     57  44  62 CALM      30.24F
TRUCKEE        CLEAR     54  45  71 CALM      30.23F
SQUAW VLY 8000 NOT AVBL
MAMMOTH LAKES    N/A     53  46  75 CALM      30.33S
BRIDGEPORT       N/A     53  37  54 CALM      30.29S
$$

NVZ030-031-036-291100-
NORTHERN NEVADA

CITY           SKY/WX    TMP DP  RH WIND       PRES   REMARKS
ELKO           CLEAR     65  35  33 CALM      30.11S
WINNEMUCCA     CLEAR     74  38  27 VRB3      30.04R
WENDOVER       PTCLDY    79  37  22 NW6       30.06S
$$

NVZ035-037-291100-
CENTRAL NEVADA

CITY           SKY/WX    TMP DP  RH WIND       PRES   REMARKS
ELY            PTCLDY    69  35  28 NW5       30.21S
EUREKA           N/A     66  31  27 CALM      30.17S
$$

NVZ013-014-291100-
SOUTH CENTRAL NEVADA

CITY           SKY/WX    TMP DP  RH WIND       PRES   REMARKS
TONOPAH        MOCLDY    80  41  24 NW3       30.15R
$$

NVZ017-020-022-291100-
SOUTHERN NEVADA

CITY           SKY/WX    TMP DP  RH WIND       PRES   REMARKS
LAS VEGAS      MOCLDY    97  47  18 NW8       29.78S
N. LAS VEGAS   PTCLDY    94  48  20 N6        29.81S
NELLIS AFB     MOCLDY    93  49  22 W10       29.79R
HENDERSON      PTCLDY    93  51  23 SW6       29.86S
MERCURY        PTCLDY    91  44  19 VRB3      29.95S
$$




USA.gov is the U.S. government's official web portal to all federal, state and local government web resources and services.